Wind_Speed
45 46 46 47 47 47 47 48 49 50 50 50 50 51 52 53 53 54 54 54 54 54 54 53 52 51 50 49 49 50 50 51 51 49 49 49 49 49 49 49 49 49 48
45 46 47 46 46 46 46 47 47 48 49 50 50 51 52 53 53 54 54 54 53 53 52 51 50 49 48 48 48 47 48 49 49 49 47 47 47 48 47 46 45 45 44
44 44 44 44 44 45 45 45 45 47 48 49 50 50 52 52 52 52 53 51 50 50 49 48 47 47 46 46 46 47 47 48 48 49 47 47 46 45 44 43 42 41 40
42 43 42 42 43 44 45 45 45 45 46 47 48 50 50 50 50 50 49 48 47 46 45 45 45 45 44 45 45 45 46 46 46 46 46 45 43 41 41 39 38 37 37
41 41 42 42 43 43 44 44 44 45 46 47 47 48 47 48 48 47 45 45 44 43 43 43 44 44 43 43 43 43 44 44 44 43 42 41 39 38 36 35 35 34 33
41 41 42 42 43 43 43 43 43 44 44 45 46 46 46 46 45 44 43 42 42 42 42 42 42 42 42 42 41 42 42 41 40 40 39 37 35 34 33 32 32 32 32
40 41 42 42 42 42 42 42 42 43 43 44 44 44 44 43 42 41 40 40 40 41 40 40 40 40 41 41 39 39 39 38 38 37 36 33 32 32 31 30 30 30 31
40 40 41 41 42 42 42 42 41 41 41 42 42 42 41 40 39 39 40 39 39 39 38 39 38 38 38 38 37 36 36 36 35 35 34 32 32 31 31 30 30 29 29
39 39 40 40 41 41 41 41 41 41 41 40 39 39 38 38 38 39 39 38 37 37 37 37 37 36 36 36 36 36 35 34 33 32 31 30 30 30 30 30 29 27 26
39 39 39 39 40 40 40 40 40 40 40 39 38 37 37 37 37 37 36 36 35 35 35 35 35 35 34 34 34 33 33 32 31 30 30 29 29 29 29 29 28 27 26
38 38 38 39 39 39 38 38 38 38 38 37 36 36 36 36 36 35 34 34 34 33 33 33 33 33 33 33 33 32 31 30 29 29 29 29 29 28 28 28 27 26 24
37 38 38 39 38 37 37 36 36 35 35 35 34 34 35 35 34 34 33 33 33 33 32 32 32 32 32 31 31 31 30 29 28 28 29 28 28 27 26 26 25 23 22
36 37 37 37 36 35 35 33 32 32 33 33 33 33 33 33 33 33 32 32 32 32 31 31 32 32 31 31 30 29 28 27 27 27 27 26 26 25 24 23 23 22 22
35 35 35 35 34 33 32 31 31 31 32 32 32 32 32 31 30 30 31 31 32 31 31 32 31 31 29 28 26 25 25 25 24 24 24 24 24 23 22 22 21 21 20
33 33 33 33 32 31 31 31 30 31 32 32 31 30 29 28 28 29 29 30 30 30 30 29 28 27 25 24 23 22 22 22 22 22 22 22 22 21 21 20 19 19 18
31 31 31 31 30 30 30 30 30 30 30 30 29 28 27 27 27 27 28 28 28 28 28 27 25 24 24 23 22 22 22 21 21 21 21 20 20 19 18 17 17 16 15
30 30 29 29 29 29 29 29 29 28 28 28 28 27 27 27 27 27 27 27 27 27 26 25 25 24 23 22 21 20 20 20 20 19 18 17 17 16 15 15 15 14 14
29 29 29 28 27 27 27 27 27 26 26 26 26 26 25 26 26 25 25 26 25 25 25 25 24 22 22 21 20 19 19 18 18 17 15 14 14 14 14 14 13 13 13
29 28 28 27 27 26 26 26 25 25 25 24 24 25 25 25 25 25 25 24 23 23 23 22 21 20 20 19 18 17 17 17 16 14 13 12 12 12 12 11 11 11 11
28 28 27 27 26 26 26 25 25 25 24 24 24 24 24 24 24 24 24 23 21 21 20 19 19 18 17 16 15 14 14 13 12 12 12 11 10 10 10 9 9 9 9
26 26 26 25 25 25 25 25 24 24 23 23 23 24 24 24 24 24 23 21 20 18 18 17 17 16 15 14 13 11 10 10 10 10 10 9 9 8 8 8 8 8 8
23 24 24 23 23 23 23 23 22 22 22 22 22 22 22 22 22 21 21 19 18 17 16 15 14 13 12 11 11 10 9 9 8 8 8 8 8 8 8 8 7 7 7
22 21 21 21 21 21 21 21 20 20 20 20 20 19 19 19 19 18 17 17 16 15 14 13 12 12 11 11 10 9 9 8 7 7 7 7 7 7 7 7 6 6 6
20 20 20 20 20 20 20 20 19 19 19 19 18 17 17 16 15 14 13 13 13 12 12 12 12 12 11 10 9 9 9 8 7 7 7 6 6 5 5 5 5 5 5
20 19 19 19 19 19 18 18 18 17 17 17 16 15 14 13 12 11 10 10 10 10 11 10 10 10 10 10 9 8 8 7 6 6 5 5 4 4 4 4 4 4 4
19 19 18 18 17 17 16 16 15 15 15 14 13 12 11 10 9 9 8 8 8 9 9 9 9 9 9 9 9 8 8 7 6 5 5 4 4 4 4 4 3 3 3
Wind_Direction
267 268 269 270 270 270 269 268 270 271 271 273 275 276 278 279 281 281 282 282 282 282 282 282 282 282 282 281 282 283 284 284 284 283 282 281 281 281 281 280 280 279 277
268 269 270 270 269 269 268 270 271 271 272 274 275 277 278 280 281 282 283 282 282 282 282 281 281 281 281 281 283 283 283 283 284 284 283 282 282 282 281 281 280 279 277
268 269 269 269 268 268 269 271 272 272 273 274 276 277 278 279 281 282 282 282 282 283 281 280 280 280 281 282 282 282 283 283 284 285 284 283 283 283 281 279 279 279 277
268 268 267 267 268 270 270 271 272 273 274 275 275 277 278 279 281 282 282 281 281 281 281 280 280 281 281 282 282 283 284 284 285 285 285 284 283 282 280 279 278 277 276
267 267 266 268 270 272 272 272 273 273 274 275 276 277 278 279 281 282 282 281 281 281 281 282 280 280 281 282 283 283 284 285 285 286 286 285 283 280 278 277 277 276 276
267 266 267 269 271 272 272 272 273 274 274 275 276 278 279 280 280 280 281 281 281 281 282 282 282 281 281 282 283 283 285 286 286 286 287 286 283 279 278 276 277 277 278
268 267 268 270 272 272 271 272 273 273 274 275 277 278 279 279 279 280 280 280 281 282 283 283 283 282 282 282 283 284 285 285 286 286 286 284 282 280 278 277 278 279 280
266 267 268 270 271 271 271 272 272 273 275 277 277 277 278 278 279 280 281 281 282 283 284 284 285 285 284 283 284 284 284 284 285 284 284 282 281 279 277 277 278 279 279
267 268 269 270 271 272 272 272 272 273 275 276 276 276 276 277 279 280 281 281 282 283 284 284 284 285 285 284 283 283 282 283 283 282 283 282 280 278 277 276 278 279 279
267 269 270 271 272 272 272 272 271 273 274 275 276 276 277 278 279 280 280 281 282 283 284 284 284 284 284 284 283 282 281 280 280 279 281 280 280 279 277 276 277 279 280
267 268 269 271 272 271 271 272 272 272 273 274 274 275 276 278 279 279 280 281 282 283 284 284 284 284 284 283 284 282 282 280 279 279 279 280 279 277 277 277 279 279 279
266 267 269 271 272 271 271 271 271 271 272 273 273 274 276 278 278 279 280 281 283 284 284 284 285 284 284 283 283 282 281 280 278 278 279 280 278 277 277 277 276 277 278
267 269 270 271 272 271 271 270 269 271 272 272 273 275 276 277 279 280 280 281 282 283 284 285 285 284 283 283 282 281 279 278 278 279 279 279 279 278 276 275 275 276 275
268 268 269 270 270 269 268 268 270 271 272 273 274 276 277 277 279 280 280 280 281 282 282 284 285 283 282 282 280 278 279 280 280 280 280 280 278 276 275 274 274 272 271
267 268 269 270 268 266 266 268 270 273 275 276 276 277 276 277 279 280 281 281 282 282 282 282 282 281 280 280 280 280 280 282 283 284 283 280 277 276 275 274 273 271 271
267 268 268 268 267 267 266 268 271 274 275 276 276 277 278 279 280 281 283 284 283 282 281 281 280 280 280 279 278 279 280 281 283 284 284 280 275 274 273 272 271 271 271
266 267 268 267 267 267 268 269 271 273 274 274 275 277 279 280 282 283 283 284 284 282 280 279 279 278 278 279 278 278 278 280 281 281 280 278 274 273 272 271 271 269 270
264 266 267 267 267 268 269 270 272 272 272 272 274 277 279 281 283 284 284 285 283 281 279 278 276 275 276 277 276 276 276 277 279 278 276 276 274 272 272 273 271 269 270
263 265 265 266 266 268 269 270 271 272 272 273 274 276 278 281 283 284 284 283 282 280 279 277 275 274 274 274 274 275 275 275 275 273 272 272 272 272 274 272 267 268 268
263 264 264 265 266 268 270 271 271 273 274 274 276 276 277 279 281 282 282 281 281 279 278 275 272 271 270 269 269 271 272 269 270 269 266 264 268 270 268 263 264 268 266
263 263 264 265 266 268 270 271 272 273 275 276 276 277 277 278 279 279 278 277 276 275 274 271 268 266 265 263 264 266 266 264 264 260 257 260 264 267 263 259 262 263 266
263 264 265 266 267 269 270 271 272 273 275 275 277 279 279 279 278 277 275 273 271 269 266 263 259 257 254 255 259 261 263 261 255 253 256 258 263 265 260 256 257 261 271
262 264 265 266 267 269 270 269 269 272 274 276 277 279 279 278 277 274 271 268 264 258 254 250 247 246 247 252 254 255 253 247 249 255 259 263 266 262 254 252 256 261 270
260 263 265 266 268 270 269 268 267 270 273 275 276 277 278 276 272 269 266 260 253 248 245 244 244 245 247 247 249 249 244 243 249 254 262 267 262 253 246 244 250 261 268
261 263 264 266 267 268 269 268 268 269 271 273 275 275 273 269 265 261 256 249 244 241 239 238 239 240 239 240 240 237 234 235 241 249 259 260 249 239 236 241 251 260 261
260 261 263 264 265 266 266 267 266 266 268 270 270 267 261 259 259 252 243 238 236 233 232 233 235 237 237 234 231 225 225 229 232 236 241 241 239 236 234 235 242 249 250
Height
5635 5635 5635 5634 5634 5634 5635 5635 5635 5635 5635 5635 5635 5634 5633 5631 5629 5626 5624 5622 5620 5618 5616 5613 5612 5609 5607 5605 5603 5601 5598 5596 5595 5598 5596 5593 5590 5588 5586 5584 5582 5580 5579
5624 5624 5623 5623 5622 5623 5623 5623 5623 5623 5623 5622 5622 5621 5619 5618 5615 5613 5610 5608 5606 5604 5602 5600 5598 5596 5595 5593 5591 5589 5586 5584 5581 5582 5582 5580 5578 5575 5573 5571 5569 5567 5566
5612 5612 5612 5612 5612 5612 5612 5611 5611 5611 5611 5610 5609 5608 5606 5604 5602 5599 5597 5594 5592 5590 5588 5587 5585 5584 5582 5581 5579 5577 5575 5572 5569 5568 5568 5567 5564 5562 5560 5559 5557 5556 5556
5602 5602 5602 5602 5602 5601 5601 5601 5600 5600 5599 5598 5596 5595 5593 5591 5589 5586 5583 5581 5579 5577 5576 5574 5573 5572 5571 5569 5567 5566 5564 5561 5558 5556 5555 5554 5552 5550 5548 5547 5547 5547 5546
5592 5592 5592 5592 5591 5591 5590 5590 5589 5588 5587 5586 5584 5582 5581 5579 5576 5574 5572 5569 5567 5566 5565 5563 5562 5560 5559 5557 5556 5554 5552 5550 5547 5545 5543 5542 5540 5539 5538 5538 5537 5538 5538
5583 5582 5582 5582 5581 5581 5580 5579 5578 5577 5575 5574 5572 5571 5569 5567 5564 5562 5560 5558 5557 5555 5554 5552 5551 5549 5548 5547 5545 5543 5541 5538 5537 5535 5533 5531 5530 5530 5529 5528 5528 5529 5530
5572 5572 5572 5571 5571 5570 5569 5568 5567 5566 5564 5563 5561 5560 5558 5556 5554 5552 5550 5548 5547 5545 5544 5542 5540 5539 5537 5536 5535 5533 5531 5529 5527 5525 5524 5523 5522 5522 5521 5521 5521 5521 5522
5562 5561 5561 5561 5560 5559 5558 5557 5556 5555 5554 5552 5551 5549 5547 5546 5544 5542 5540 5538 5537 5535 5533 5532 5530 5529 5527 5526 5525 5524 5522 5521 5519 5517 5516 5515 5514 5513 5513 5513 5513 5514 5514
5551 5551 5551 5550 5549 5548 5547 5546 5545 5544 5544 5542 5540 5539 5538 5537 5534 5532 5530 5529 5528 5526 5524 5522 5521 5519 5518 5516 5515 5514 5514 5513 5511 5509 5508 5507 5506 5506 5505 5505 5505 5506 5506
5540 5540 5540 5539 5538 5538 5537 5536 5535 5534 5533 5532 5531 5530 5528 5527 5525 5523 5521 5520 5519 5518 5516 5514 5512 5510 5509 5507 5506 5505 5505 5504 5502 5501 5501 5500 5499 5499 5498 5498 5498 5499 5499
5530 5530 5529 5529 5528 5527 5526 5525 5524 5523 5523 5522 5521 5520 5519 5517 5516 5514 5512 5511 5510 5509 5508 5506 5504 5502 5500 5499 5497 5496 5495 5495 5494 5493 5493 5492 5492 5492 5491 5491 5491 5491 5492
5519 5519 5519 5518 5517 5516 5516 5515 5514 5513 5513 5512 5512 5511 5510 5508 5507 5505 5504 5502 5501 5500 5499 5497 5496 5494 5492 5490 5489 5488 5487 5486 5486 5485 5485 5485 5484 5484 5484 5484 5484 5484 5485
5509 5509 5509 5508 5508 5507 5506 5505 5505 5504 5503 5503 5502 5502 5501 5500 5498 5497 5495 5494 5492 5491 5490 5489 5487 5485 5484 5482 5481 5480 5479 5478 5478 5478 5477 5477 5477 5477 5477 5477 5477 5478 5479
5499 5499 5499 5499 5498 5498 5497 5496 5496 5495 5495 5494 5493 5493 5492 5491 5489 5488 5486 5485 5484 5483 5481 5480 5479 5477 5476 5475 5474 5473 5472 5471 5471 5471 5470 5470 5470 5470 5470 5471 5471 5472 5473
5490 5490 5489 5489 5489 5489 5488 5488 5487 5487 5486 5485 5485 5484 5483 5482 5481 5479 5478 5477 5476 5474 5473 5472 5471 5470 5469 5468 5467 5466 5466 5465 5465 5464 5464 5463 5463 5464 5464 5465 5465 5466 5467
5480 5481 5481 5480 5480 5480 5480 5480 5479 5478 5478 5476 5476 5475 5474 5474 5473 5471 5470 5469 5467 5466 5465 5464 5463 5463 5462 5462 5461 5461 5460 5459 5459 5458 5458 5458 5458 5458 5459 5460 5460 5461 5462
5471 5472 5471 5471 5471 5471 5471 5471 5471 5471 5469 5468 5468 5467 5466 5466 5465 5463 5462 5461 5459 5458 5457 5457 5456 5456 5456 5455 5455 5455 5454 5454 5454 5453 5453 5453 5453 5454 5454 5455 5456 5457 5458
5463 5463 5463 5463 5463 5463 5463 5463 5463 5462 5462 5461 5460 5459 5458 5458 5457 5455 5454 5453 5451 5450 5449 5449 5449 5449 5449 5449 5449 5449 5449 5449 5449 5449 5448 5449 5449 5450 5450 5451 5452 5453 5453
5454 5454 5455 5455 5455 5455 5455 5455 5455 5454 5454 5453 5453 5452 5451 5450 5449 5448 5446 5445 5444 5443 5443 5443 5443 5443 5443 5444 5444 5444 5444 5444 5444 5445 5445 5445 5445 5446 5447 5447 5448 5449 5450
5446 5446 5446 5447 5448 5448 5448 5447 5447 5447 5446 5446 5445 5445 5444 5443 5442 5441 5439 5438 5438 5437 5437 5437 5437 5438 5438 5439 5439 5440 5440 5440 5441 5441 5442 5442 5443 5443 5444 5445 5445 5446 5447
5438 5438 5439 5439 5440 5440 5440 5440 5440 5439 5439 5438 5438 5437 5436 5435 5435 5434 5433 5432 5432 5432 5432 5432 5433 5433 5434 5435 5435 5436 5437 5437 5438 5438 5439 5440 5440 5441 5441 5442 5443 5443 5444
5430 5431 5431 5432 5432 5432 5433 5433 5432 5432 5432 5431 5431 5430 5429 5428 5427 5427 5426 5426 5427 5427 5427 5428 5428 5429 5430 5431 5432 5433 5434 5434 5435 5436 5437 5438 5438 5439 5439 5440 5440 5441 5441
5423 5424 5424 5425 5425 5425 5425 5425 5425 5425 5425 5425 5424 5423 5422 5421 5421 5420 5420 5420 5421 5422 5423 5424 5425 5426 5427 5428 5429 5430 5431 5432 5433 5434 5435 5435 5436 5436 5437 5437 5438 5438 5439
5417 5417 5418 5418 5419 5419 5419 5419 5419 5419 5418 5418 5418 5417 5416 5416 5415 5415 5415 5415 5416 5417 5419 5420 5421 5423 5424 5425 5427 5428 5429 5430 5431 5432 5432 5433 5433 5434 5435 5435 5436 5437 5437
5410 5411 5411 5412 5412 5412 5412 5412 5412 5412 5412 5412 5412 5412 5411 5411 5411 5411 5412 5412 5413 5414 5416 5417 5418 5420 5421 5422 5424 5425 5426 5428 5429 5430 5431 5431 5432 5433 5433 5434 5435 5435 5436
5404 5405 5405 5406 5406 5406 5407 5407 5407 5407 5407 5407 5407 5407 5408 5408 5408 5408 5409 5410 5411 5412 5413 5415 5416 5417 5418 5420 5421 5423 5424 5426 5427 5428 5429 5430 5431 5431 5432 5433 5434 5434 5434